Flag for Germany Weather past 2 weeks in Dreieich, Hesse, Germany

Now
40 °F

Overcast.


Feels Like: 36 °F
Forecast: 33 / 38 °F
Wind: 5 mph from Southwest

Location: Frankfurt / M-Flughafen

Current Time: Dec 25, 2014 at 7:45:11 AM

Latest Report: Dec 25, 2014 at 7:00 AM


Visibility: 28 mi

Pressure: 30.23 "Hg

Humidity: 75%

Dew point: 32 °F

Location of DreieichLocation

Historic Weather in Dreieich — Graph

°F

Dreieich temperature yesterday

Maximum temperature yesterday: 48 °F (at 5:00 PM)
Minimum temperature yesterday: 41 °F (at 7:00 AM)
Average temperature yesterday: 45 °F

Past Weeks' High & Low Weather Summary

 TemperatureHumidityPressure
High57 °F (Dec 18, 9:00 PM)100% (Dec 13, 6:00 AM)30.49 "Hg (Dec 13, 6:00 AM)
Low32 °F (Dec 17, 4:00 AM)67% (Dec 12, 8:00 PM)29.62 "Hg (Dec 12, 6:00 PM)
Average43 °F88%30.05 "Hg
* Reported Dec 10 7:00 AM — Dec 25 7:00 AM, Dreieich, Weather by CustomWeather, © 2014

Note: Actual official high and low records may vary slightly from our data, if they occured in-between our weather recording intervals... More about our weather records

Advertising

Dreieich weather history for previous 24 hours

 ConditionsComfort  
Time TempWeatherWind HumidityBarometerVisibility
7:00 AM
Dec 25
40 °FOvercast.5 mph75%30.23 "Hg28 mi
6:00 AM39 °FOvercast.6 mph78%30.23 "Hg25 mi
5:00 AM40 °FOvercast.6 mph76%30.22 "Hg25 mi
4:00 AM42 °FPassing clouds.3 mph69%30.21 "Hg25 mi
3:00 AM40 °FPassing clouds.6 mph94%30.20 "Hg25 mi
2:00 AM44 °FOvercast.6 mph77%30.17 "Hg25 mi
1:00 AM44 °FOvercast.3 mph83%30.16 "Hg22 mi
12:00 AM45 °FLight rain. Low clouds.8 mph92%30.14 "Hg9 mi
11:00 PM
Dec 24
47 °FLight rain. Overcast.7 mph92%30.10 "Hg5 mi
9:00 PM47 °FOvercast.8 mph85%30.09 "Hg19 mi
8:00 PM47 °FLight rain. Overcast.9 mph82%30.09 "Hg11 mi
7:00 PM47 °FOvercast.8 mph81%30.09 "Hg19 mi
6:00 PM47 °FLight rain. Overcast.9 mph83%30.08 "Hg16 mi
5:00 PM48 °FLight rain. Overcast.9 mph78%30.08 "Hg19 mi
3:00 PM48 °FOvercast.12 mph77%30.09 "Hg25 mi
2:00 PM47 °FOvercast.10 mph77%30.10 "Hg28 mi
1:00 PM47 °FOvercast.9 mph77%30.11 "Hg25 mi
12:00 PM46 °FOvercast.9 mph76%30.13 "Hg25 mi
11:00 AM46 °FOvercast.9 mph77%30.14 "Hg22 mi
9:00 AM42 °FOvercast.9 mph82%30.16 "Hg12 mi
8:00 AM42 °FOvercast.9 mph82%30.15 "Hg16 mi
7:00 AM41 °FOvercast.9 mph83%30.15 "Hg19 mi
Weather by CustomWeather, © 2014

See weather overviewHow to use our weather pages